Flag for Germany Weather past 2 weeks in Bayreuth, Bavaria, Germany

Now
46 °F

Clear.


Feels Like: 46 °F
Forecast: 51 / 76 °F
Wind: No wind

Location: Grafenwoehr

Current Time: Sep 18, 2014 at 4:31:39 AM

Latest Report: Sep 18, 2014 at 3:58 AM


Visibility: N/A

Pressure: 29.93 "Hg

Humidity: 100%

Dew point: 46 °F

Location of BayreuthLocation

Historic Weather in Bayreuth — Graph

°F

Bayreuth temperature yesterday

Maximum temperature yesterday: 73 °F (at 3:58 PM)
Minimum temperature yesterday: 50 °F (at 2:58 AM)
Average temperature yesterday: 60 °F

Past Weeks' High & Low Weather Summary

 TemperatureHumidityPressure
High77 °F (Sep 5, 3:58 PM)100% (Sep 4, 3:58 AM)30.17 "Hg (Sep 4, 3:58 AM)
Low41 °F (Sep 11, 6:58 AM)35% (Sep 9, 12:58 PM)29.87 "Hg (Sep 6, 4:58 PM)
Average60 °F84%30.01 "Hg
* Reported Sep 3 2:58 AM — Sep 18 2:58 AM, Bayreuth, Weather by CustomWeather, © 2014

Note: Actual official high and low records may vary slightly from our data, if they occured in-between our weather recording intervals... More about our weather records

Advertising

Bayreuth weather history for previous 24 hours

 ConditionsComfort  
Time TempWeatherWind HumidityBarometerVisibility
2:58 AM
Sep 18
48 °FClear.No wind100%29.93 "HgN/A
1:58 AM50 °FClear.No wind100%29.93 "HgN/A
12:58 AM50 °FClear.No wind100%29.93 "HgN/A
11:58 PM
Sep 17
52 °FFog.No wind94%29.93 "Hg6 mi
10:58 PM54 °FClear.No wind88%29.94 "HgN/A
9:58 PM55 °FClear.1 mph88%29.94 "HgN/A
8:58 PM59 °FClear.No wind82%29.94 "HgN/A
7:58 PM61 °FSunny.No wind77%29.93 "HgN/A
6:58 PM68 °FSunny.No wind64%29.93 "HgN/A
5:58 PM72 °FSunny.3 mph57%29.92 "HgN/A
4:58 PM73 °FSunny.2 mph53%29.93 "HgN/A
3:58 PM73 °FSunny.3 mph53%29.93 "HgN/A
2:58 PM72 °FSunny.5 mph53%29.94 "HgN/A
1:58 PM70 °FSunny.7 mph57%29.96 "HgN/A
12:58 PM70 °FPassing clouds.5 mph60%29.96 "HgN/A
11:58 AM66 °FScattered clouds.3 mph64%29.96 "HgN/A
10:58 AM64 °FPassing clouds.1 mph68%29.98 "HgN/A
9:58 AM63 °FPartly sunny.3 mph73%29.98 "HgN/A
8:58 AM59 °FSunny.3 mph82%29.99 "HgN/A
7:58 AM54 °FPassing clouds.2 mph100%30.00 "HgN/A
6:58 AM52 °FOvercast.1 mph100%29.99 "HgN/A
5:58 AM52 °FClear.2 mph100%29.98 "HgN/A
4:58 AM50 °FClear.1 mph100%29.97 "HgN/A
Weather by CustomWeather, © 2014

See weather overviewHow to use our weather pages